Back to catalog

STARLINK-1404

AliveCommunicationsVLEO
NORAD 45686·PAYLOAD·🇺🇸 United States

Launched Jun 4, 2020 from Cape Canaveral Space Force Station

Loading…

Next Passes (next 24 hours)

TLE

FreshSource: CelesTrak SupGP

Epoch: Sep 15, 2026, 02:10 UTC

1 45686C 20035AF  26258.09076389  .00037511  00000+0  54292-3 0  2583
2 45686  53.1509 230.6700 0004745  79.7301 178.3989 15.55246000    13

Track STARLINK-1404 in real time with AllMySat

Download on the App Store